Wind_Speed
22 22 21 20 20 20 21 21 21 22 21 22 24 24 23 23 23 23 21 21 22 23 22 21 20 18 16 16 17 18 19 21 22 22 21 20 18 18 19 19 19 19 18 19 20 22 23 23 24 25 28 29 28 25 23 23 24 27 30 28 28 28
21 20 20 20 20 19 21 21 21 21 21 22 24 24 23 22 22 23 22 22 22 22 22 22 21 18 16 16 16 17 19 20 21 20 20 19 18 18 20 20 19 18 17 18 20 22 23 24 25 26 28 30 30 27 25 24 24 26 29 29 29 30
22 21 20 19 19 19 21 21 21 21 21 22 23 23 21 21 22 22 22 22 21 22 22 22 21 19 18 17 17 17 17 18 18 18 18 18 18 18 19 19 18 17 16 18 20 22 23 25 27 28 30 32 33 30 26 25 25 26 27 29 31 30
22 20 19 19 19 20 21 21 22 21 21 23 23 22 21 20 21 21 21 21 21 21 21 20 19 19 18 17 17 16 17 17 17 17 17 17 17 17 17 17 17 17 17 18 19 21 23 25 27 29 31 34 34 31 28 27 26 25 25 28 32 31
20 19 18 18 19 20 21 21 22 21 22 23 23 22 21 21 21 21 20 21 20 19 18 18 18 17 16 16 16 16 16 17 16 15 16 17 17 16 15 16 16 17 18 19 19 18 20 22 25 27 31 35 35 32 30 28 27 25 24 28 32 32
20 20 19 18 19 20 21 21 21 22 23 24 24 23 22 20 20 20 19 19 19 19 19 18 18 17 16 16 16 15 14 15 15 14 15 17 17 16 16 17 17 17 19 20 20 18 17 18 21 26 30 34 35 34 32 29 28 27 25 28 32 33
21 21 20 19 19 20 21 22 21 22 24 26 26 24 22 21 20 19 18 19 20 22 21 18 18 18 17 17 17 14 13 13 14 14 16 18 18 18 19 20 19 19 20 20 20 19 18 18 19 22 27 33 35 36 34 30 28 26 25 28 31 32
22 22 21 20 21 21 20 22 21 21 24 24 26 26 24 23 20 19 19 20 20 22 21 18 17 17 18 18 17 14 12 12 12 12 14 16 18 18 19 20 20 20 21 21 20 20 19 18 18 19 23 30 36 37 35 31 28 26 25 27 29 31
23 24 23 22 23 22 22 23 22 22 23 22 23 25 25 24 21 20 20 19 18 19 20 18 17 17 18 19 18 15 13 13 12 11 11 13 15 16 17 18 20 21 21 21 21 21 20 19 18 18 19 25 34 38 37 34 30 28 26 26 28 30
21 22 23 23 23 24 24 24 25 24 23 22 22 23 24 25 22 21 22 20 17 18 19 19 18 17 18 19 18 16 15 15 14 13 14 14 14 15 16 17 20 21 20 20 21 20 20 19 19 18 18 20 28 36 38 37 34 31 28 26 27 29
20 21 21 22 23 24 25 25 25 23 22 22 22 22 23 23 22 22 22 21 19 17 17 17 16 16 17 18 19 18 17 17 16 16 16 16 16 15 15 17 19 19 19 20 21 20 19 20 20 19 19 18 22 30 36 38 37 33 29 27 27 28
19 20 20 21 23 23 24 24 24 23 21 22 23 23 22 21 21 22 23 22 21 19 17 16 15 15 17 18 20 20 20 19 17 16 16 16 16 17 17 17 18 19 19 20 20 20 19 19 20 21 20 19 20 26 34 38 37 34 31 29 28 28
18 19 19 19 21 22 22 22 22 22 21 22 23 25 24 23 22 22 23 23 23 22 21 21 19 17 19 20 21 21 22 21 18 17 18 18 17 17 18 18 18 17 18 18 18 19 19 20 20 21 22 22 22 25 31 36 37 36 34 32 29 28
18 18 17 18 18 20 21 21 21 21 22 22 23 25 25 25 24 24 25 24 24 23 22 22 21 20 21 22 22 23 24 22 20 19 19 19 18 18 19 20 18 16 16 15 16 18 19 20 20 19 22 24 25 27 31 35 37 36 36 35 33 30
18 17 17 17 17 19 20 21 22 22 23 22 22 24 25 26 26 26 26 25 24 23 22 22 21 22 23 23 23 24 25 24 21 19 19 19 19 20 21 21 19 18 17 16 16 18 19 20 20 20 20 22 24 26 30 34 36 37 37 37 36 34
18 17 17 17 17 18 19 21 22 23 24 24 23 24 25 26 26 27 27 25 25 25 24 23 22 23 24 23 23 24 25 24 21 19 19 20 21 21 22 22 22 21 19 18 18 19 19 20 21 21 21 20 21 22 25 29 32 35 37 38 38 37
17 17 17 17 17 17 18 19 21 22 23 24 25 25 25 26 27 28 27 26 26 26 26 25 25 25 25 24 23 24 24 22 21 20 20 21 21 22 22 23 23 22 20 20 21 21 21 21 21 21 21 21 21 21 23 25 28 31 35 38 39 39
17 17 17 17 17 17 17 18 19 19 21 22 24 26 26 26 27 28 28 27 26 27 27 27 26 26 26 26 24 23 22 21 21 21 21 21 22 22 21 22 23 22 21 21 22 22 22 21 21 21 21 22 22 23 24 25 28 30 33 36 38 40
17 17 18 17 17 17 17 18 18 18 19 20 22 25 26 25 27 28 28 28 27 27 28 27 27 27 27 27 25 23 22 21 21 21 21 21 21 21 21 21 21 22 22 23 22 21 21 21 20 20 21 22 23 24 25 26 27 30 33 35 37 40
18 18 19 18 17 18 19 19 19 18 18 19 21 23 24 24 25 26 27 28 28 28 28 28 28 28 28 28 26 24 22 21 21 21 22 21 21 21 20 19 20 20 20 21 21 21 22 21 21 21 21 22 22 24 25 25 27 29 31 33 35 39
18 19 19 19 19 18 18 19 20 20 20 20 20 21 23 23 24 25 25 26 28 28 28 29 29 29 28 28 27 25 23 23 22 22 22 22 21 20 19 19 19 20 19 19 20 21 21 21 22 21 20 20 22 23 24 26 27 28 29 30 32 36
18 19 19 19 19 18 18 19 20 21 21 21 21 21 22 23 23 24 24 25 26 28 29 29 29 29 29 28 28 27 25 24 24 24 24 23 22 20 19 19 20 22 21 21 21 21 21 21 22 21 19 20 22 23 24 26 27 28 29 29 30 32
19 20 20 19 19 19 18 18 20 20 20 21 21 21 22 22 22 23 23 24 25 27 28 29 29 29 29 28 28 28 27 26 26 25 25 25 24 21 20 20 20 21 22 22 22 22 23 23 22 22 22 23 23 24 26 26 27 28 29 30 31 30
21 20 20 19 19 18 18 17 19 20 19 19 20 21 22 22 22 22 23 23 24 25 27 28 28 29 29 29 29 28 28 27 27 27 26 26 25 23 22 21 21 21 22 23 23 23 24 24 24 25 26 27 25 26 27 27 27 28 28 30 32 31
23 22 20 19 18 17 17 17 18 20 20 20 20 20 21 22 23 23 23 23 24 25 26 26 27 28 29 29 28 28 28 27 27 27 27 26 25 24 23 23 22 22 22 23 24 24 25 25 26 27 27 28 27 26 28 28 28 28 27 26 28 28
24 24 21 20 18 17 16 16 18 20 20 20 21 21 21 22 23 23 24 24 24 24 25 26 27 27 28 28 28 28 28 28 28 27 27 26 26 25 24 24 23 23 23 23 24 25 25 26 27 27 27 27 26 25 26 26 26 26 25 24 23 22
24 25 24 22 19 18 17 17 18 19 20 21 21 22 22 22 23 23 24 24 24 24 24 25 26 27 28 28 28 28 28 28 28 27 26 26 26 26 25 24 24 24 24 23 24 25 25 26 26 27 27 27 26 25 24 25 24 24 23 23 23 21
24 26 26 24 21 19 19 20 20 20 20 21 21 22 22 22 23 24 24 23 23 23 24 24 25 25 26 27 28 28 28 28 27 27 26 25 25 25 25 24 24 24 24 24 25 25 25 26 26 26 26 26 26 25 24 23 23 23 21 21 21 20
25 27 28 26 23 21 22 24 23 21 21 21 22 22 22 22 23 23 23 23 23 23 23 24 24 24 25 25 26 26 27 26 26 26 25 24 24 24 24 23 23 23 23 23 23 24 24 25 25 25 25 25 24 24 23 22 22 23 22 21 20 19
27 28 29 28 25 23 24 27 26 24 22 22 22 22 22 22 22 22 22 22 22 23 23 23 23 23 23 24 24 24 25 25 25 24 24 23 21 21 21 21 21 21 21 21 21 22 23 24 24 24 24 24 23 23 22 21 22 23 23 23 23 23
30 29 29 29 27 25 26 28 28 26 22 20 21 21 21 21 21 20 20 21 21 22 23 23 22 22 22 22 22 22 23 23 23 22 22 21 20 19 18 18 18 19 19 19 20 20 21 22 22 23 23 23 22 22 21 21 21 22 23 24 25 25
32 30 29 29 28 26 27 28 27 25 21 18 18 19 19 19 19 19 19 19 20 20 21 22 21 21 21 21 21 21 21 21 21 21 20 19 18 17 16 16 16 16 17 17 17 18 19 20 20 21 22 22 21 21 20 20 20 21 22 22 23 24
33 31 29 30 29 27 27 27 24 23 20 17 16 15 16 17 17 18 18 18 19 19 20 20 20 20 19 19 20 20 20 20 20 20 19 19 18 16 15 15 15 15 15 15 15 16 17 18 18 19 20 21 21 20 19 19 19 20 20 20 20 21
34 32 31 30 30 27 25 23 21 20 18 15 14 13 14 15 16 17 18 18 18 19 19 19 19 19 18 17 18 18 19 19 19 19 19 18 18 17 16 15 15 15 15 14 14 14 15 16 16 17 18 19 19 18 18 17 18 19 19 19 18 18
37 32 33 32 29 26 23 21 19 18 16 14 13 13 14 15 16 17 18 18 19 19 20 20 20 19 18 18 17 17 17 18 18 18 17 17 17 17 17 16 16 16 15 14 14 14 14 15 15 15 16 17 17 17 16 16 17 17 17 17 17 16
39 32 32 33 28 24 22 20 17 16 14 13 13 14 15 15 16 16 17 18 19 19 20 20 20 20 19 19 18 18 17 17 17 17 17 16 16 16 16 16 16 16 15 15 14 13 13 14 15 15 16 16 15 15 15 14 14 15 16 16 16 15
36 30 30 31 27 23 21 19 18 16 14 13 14 15 16 16 17 17 18 19 20 20 20 20 20 20 19 19 19 18 18 18 18 18 17 17 16 16 16 16 15 15 15 14 14 13 13 13 14 15 16 16 15 15 15 14 13 13 14 15 15 15
Wind_Direction
272 275 280 281 280 281 279 278 278 281 284 281 278 277 280 280 279 277 274 267 264 265 266 265 263 262 261 258 256 255 255 257 257 258 259 261 262 260 256 253 252 252 249 246 245 245 244 242 237 232 234 234 229 222 221 224 221 214 210 206 202 203
278 280 280 278 277 278 277 276 278 281 282 278 274 274 276 277 279 278 272 264 259 261 264 264 264 265 263 260 260 259 257 256 255 256 255 255 257 256 254 251 250 250 249 248 247 245 245 243 240 237 236 234 232 226 221 224 224 219 212 208 206 206
281 280 276 276 276 278 278 277 278 279 279 275 273 273 274 275 276 275 270 263 259 258 258 258 260 262 261 261 261 261 258 256 254 253 254 255 255 254 254 253 251 249 250 253 251 246 243 243 243 243 239 232 231 228 223 222 224 221 214 210 210 208
281 280 276 277 278 276 276 278 278 279 279 275 274 273 274 277 277 275 270 264 261 259 256 252 253 255 256 258 258 256 253 254 255 256 256 254 254 252 253 254 254 251 251 255 254 247 241 241 242 243 240 231 228 228 225 223 223 220 213 213 215 211
282 281 280 281 280 278 277 278 278 279 278 277 277 273 275 282 282 279 270 263 261 259 257 252 250 251 252 253 253 251 250 251 250 252 253 252 253 252 252 254 256 254 251 254 258 255 247 244 242 241 240 233 227 226 227 225 223 218 212 215 218 215
283 280 281 283 283 282 281 281 279 280 279 277 277 275 278 282 280 279 273 266 264 263 262 256 251 252 253 253 252 248 248 249 243 239 245 248 251 252 255 257 257 255 253 255 258 260 257 254 247 240 237 233 228 225 227 228 227 221 212 215 219 217
289 286 284 286 285 284 284 282 280 282 280 276 275 277 283 285 280 278 276 270 266 262 259 254 250 251 254 255 254 248 249 256 248 241 242 241 244 248 254 258 257 255 254 255 256 257 258 258 255 248 238 232 227 224 225 229 231 227 218 218 219 219
290 292 291 289 287 286 284 279 279 281 277 272 273 276 283 287 280 274 273 267 261 259 257 253 250 250 252 255 256 254 254 255 250 249 250 242 240 244 248 255 258 256 255 255 256 258 258 258 259 257 246 233 227 223 222 226 230 229 224 223 222 220
291 291 290 287 284 283 281 279 281 281 276 274 273 273 279 284 279 273 271 266 259 259 263 261 254 250 251 254 259 263 262 261 255 250 251 249 249 249 249 255 259 258 257 255 256 258 259 260 260 260 254 241 232 226 222 222 225 226 224 223 223 222
286 285 284 282 279 277 278 278 282 284 282 279 277 276 280 282 280 275 271 271 267 262 265 263 255 253 257 259 264 271 272 270 263 254 253 259 264 261 256 257 260 260 258 256 257 258 259 260 260 261 262 251 240 233 226 223 223 224 224 222 222 223
278 277 278 278 277 276 276 277 280 282 282 279 277 277 277 276 276 273 268 269 268 262 262 258 250 252 260 262 264 268 268 266 263 259 259 264 270 270 263 258 261 263 260 257 257 257 258 259 258 259 260 256 247 238 231 227 225 224 225 224 222 223
279 279 279 278 276 274 274 275 277 278 277 277 277 278 278 273 269 267 265 265 264 264 264 261 259 261 263 263 265 268 271 274 269 262 261 264 268 270 268 264 265 267 265 261 259 259 258 258 258 255 255 255 248 240 232 230 228 226 226 227 225 225
282 283 282 280 275 271 269 271 274 277 276 276 278 282 284 280 274 271 270 267 267 268 267 267 271 272 270 270 272 277 281 284 278 269 267 268 268 267 269 270 268 268 267 265 264 263 258 258 260 254 252 252 244 238 233 231 230 228 228 229 227 228
283 282 282 280 276 270 267 269 272 275 276 277 277 280 281 280 280 279 276 271 269 268 266 266 268 271 272 273 276 280 283 284 280 278 277 274 271 268 269 271 267 265 266 268 267 266 260 258 261 255 251 250 241 233 231 232 233 232 231 232 230 229
283 278 276 276 274 270 266 267 269 271 274 275 275 276 277 279 280 280 279 275 272 269 266 265 266 269 272 275 280 283 285 285 283 283 280 276 275 274 273 271 266 264 265 267 268 267 263 258 258 257 255 255 249 238 232 231 234 236 237 238 236 233
282 275 274 274 273 270 266 264 265 268 270 271 272 272 275 277 279 279 279 277 275 274 272 272 273 273 275 279 284 285 286 287 286 283 280 279 279 277 276 271 264 263 264 264 266 266 265 259 255 256 255 256 256 251 244 237 235 237 240 241 242 240
284 278 276 276 276 273 269 266 264 264 266 267 268 268 270 273 275 277 278 276 274 273 273 274 276 277 279 281 284 284 285 287 286 284 282 280 277 274 274 269 263 262 263 263 264 266 266 262 257 255 255 255 254 253 253 249 244 240 240 242 242 242
290 285 282 280 279 275 271 268 267 266 265 265 265 265 266 267 270 272 275 275 270 268 268 269 272 276 279 282 282 283 285 287 287 284 281 277 274 271 269 268 265 265 266 266 266 266 265 263 260 258 256 255 255 254 253 253 252 248 244 243 242 241
292 288 285 283 280 278 276 273 273 272 269 267 265 264 264 265 267 268 270 271 268 265 265 267 270 273 278 281 281 283 285 286 285 283 280 277 274 269 267 269 272 272 270 268 267 266 267 266 264 261 257 256 257 258 257 256 257 256 253 250 245 241
291 287 285 281 279 279 281 281 280 278 274 272 269 267 267 267 266 265 265 267 266 264 262 264 268 271 275 278 280 282 284 283 281 280 279 278 274 271 271 273 277 278 274 269 269 271 272 270 266 263 258 257 258 260 261 260 260 261 261 260 256 248
289 287 285 281 279 278 281 285 285 284 281 278 275 273 272 269 267 266 265 264 263 262 261 262 266 269 272 276 280 281 282 282 281 280 279 277 275 274 275 274 275 279 278 275 276 279 280 276 271 264 258 261 263 263 263 262 261 261 263 264 266 259
288 287 286 283 281 278 281 286 287 285 283 281 280 279 277 273 271 270 267 264 262 262 262 263 266 269 271 275 279 281 283 283 282 281 280 279 278 276 276 275 275 278 280 279 279 281 283 282 277 267 264 270 271 269 266 264 263 262 263 264 267 267
288 287 285 284 283 281 285 289 290 287 283 282 282 282 282 279 276 274 270 267 264 263 264 265 267 270 273 275 279 282 284 284 283 282 282 281 281 280 279 278 276 278 280 280 280 280 282 283 279 270 272 275 273 272 270 268 267 266 266 265 264 267
288 285 286 286 286 287 290 294 296 292 287 283 281 282 283 282 281 279 275 272 269 268 267 268 270 272 275 277 279 281 283 283 283 282 282 282 282 281 280 279 277 278 278 279 280 280 280 280 276 271 274 275 270 268 267 268 271 272 271 268 266 267
292 288 290 291 292 293 293 296 298 294 290 287 283 282 282 282 283 281 280 278 275 274 273 274 275 276 277 278 279 281 281 281 280 280 280 280 281 280 279 279 279 278 277 277 279 279 278 277 273 272 273 273 270 266 265 267 270 274 275 271 269 268
294 293 293 297 299 296 294 297 297 294 291 288 286 284 283 282 282 282 282 281 280 279 278 278 278 278 278 278 279 279 279 278 277 277 277 277 278 279 279 280 279 278 278 278 278 277 276 276 274 273 273 274 272 268 266 268 269 273 273 267 265 269
294 295 296 298 301 299 296 296 295 292 291 289 288 285 284 282 281 281 282 282 282 281 280 279 278 278 278 277 277 277 276 276 275 275 275 275 276 277 278 278 279 279 280 279 278 278 277 277 275 274 275 276 274 271 268 267 268 273 274 266 264 268
293 295 296 297 300 301 297 296 294 292 291 291 289 286 284 281 280 280 280 281 281 280 280 280 279 278 277 276 276 275 274 274 274 274 274 273 273 274 275 276 277 278 279 279 279 279 278 278 277 276 276 276 275 274 271 268 266 269 273 270 266 264
292 293 294 294 298 300 297 295 295 294 292 291 289 286 284 280 278 277 278 278 278 277 277 277 278 277 276 275 275 274 274 274 274 274 274 273 271 272 274 275 276 277 278 279 279 280 279 277 277 277 275 274 274 274 272 269 266 266 267 266 263 262
289 289 290 292 295 297 298 295 295 295 293 290 288 285 282 279 277 276 277 278 277 277 276 275 276 275 275 275 274 275 275 275 275 275 275 275 274 274 274 276 278 278 279 279 279 278 277 276 276 276 275 274 273 273 272 270 266 263 264 263 262 263
284 284 287 289 292 295 296 294 294 294 290 287 286 283 281 278 277 277 277 277 277 277 277 276 276 275 274 274 274 274 275 276 277 277 277 278 279 279 279 280 281 281 281 281 279 278 277 277 276 275 275 274 274 273 271 270 266 263 262 263 264 265
278 279 282 284 288 292 293 290 290 289 285 283 282 281 281 278 276 276 275 275 275 275 275 275 275 274 274 273 273 274 274 275 277 278 279 280 282 284 283 283 283 283 282 281 279 277 277 277 277 276 275 275 275 274 271 269 267 266 264 263 265 267
274 276 277 280 285 289 288 284 284 283 279 277 277 279 280 278 276 274 273 274 273 272 273 272 272 273 273 273 273 274 275 276 277 278 280 281 284 287 287 286 284 283 283 281 279 276 276 278 278 277 277 277 278 276 274 271 268 267 266 265 265 266
271 274 274 277 282 282 279 276 276 276 274 273 276 279 280 279 277 274 273 272 271 271 271 270 270 271 272 273 274 275 276 277 279 280 280 282 285 289 291 290 289 287 285 284 281 279 278 279 280 280 279 280 281 279 276 273 270 269 269 267 266 265
265 270 274 274 275 272 268 268 270 271 271 273 278 281 281 279 277 275 274 272 271 270 269 270 270 270 270 272 273 274 275 276 278 279 281 283 286 289 293 294 294 293 292 290 287 283 281 281 281 282 282 282 283 284 281 276 272 270 270 270 269 267
257 263 271 269 266 261 260 264 265 267 271 275 280 282 282 280 278 277 277 276 275 273 271 270 270 270 270 270 271 272 273 274 275 277 279 281 284 287 291 294 296 296 295 294 292 289 285 283 283 283 284 283 283 284 284 282 277 274 273 272 272 271
249 255 263 260 258 255 255 261 262 265 271 275 278 279 278 279 278 279 279 279 278 276 274 273 272 272 272 271 272 272 273 274 274 275 276 277 279 281 283 287 289 291 292 293 293 292 288 285 284 285 285 285 283 282 281 280 277 274 273 272 273 274
Height
5803 5804 5804 5804 5804 5805 5805 5804 5805 5806 5807 5807 5806 5806 5805 5804 5803 5803 5804 5804 5804 5804 5804 5804 5805 5805 5806 5807 5807 5808 5808 5808 5808 5809 5809 5810 5810 5811 5811 5812 5813 5815 5816 5817 5818 5819 5819 5820 5821 5822 5823 5824 5824 5825 5826 5827 5828 5829 5831 5834 5835 5835
5801 5802 5802 5802 5802 5803 5802 5802 5802 5803 5804 5804 5803 5803 5803 5802 5802 5801 5801 5801 5801 5802 5802 5803 5803 5804 5805 5805 5805 5805 5806 5806 5806 5806 5807 5808 5808 5809 5809 5810 5811 5812 5814 5815 5816 5817 5818 5818 5819 5820 5821 5822 5823 5824 5824 5825 5826 5828 5830 5833 5833 5834
5798 5800 5800 5800 5801 5801 5800 5800 5800 5801 5802 5801 5801 5801 5801 5801 5800 5799 5799 5800 5800 5800 5801 5801 5802 5802 5803 5803 5803 5803 5804 5804 5804 5805 5805 5806 5806 5807 5808 5808 5810 5811 5812 5813 5814 5815 5816 5816 5817 5817 5818 5819 5821 5822 5823 5823 5824 5826 5829 5831 5831 5832
5796 5797 5797 5798 5798 5798 5798 5798 5798 5799 5799 5798 5798 5799 5799 5799 5799 5798 5798 5798 5798 5798 5798 5800 5800 5800 5801 5801 5802 5802 5802 5802 5803 5804 5804 5804 5804 5805 5806 5807 5809 5809 5810 5811 5812 5813 5813 5814 5814 5815 5816 5817 5818 5821 5821 5821 5822 5824 5828 5830 5830 5831
5794 5794 5795 5795 5796 5796 5796 5796 5796 5797 5797 5796 5796 5796 5796 5797 5797 5796 5796 5795 5796 5796 5795 5797 5798 5798 5799 5800 5800 5801 5801 5801 5801 5803 5804 5804 5803 5804 5805 5806 5807 5808 5809 5809 5810 5810 5811 5812 5812 5813 5814 5815 5817 5819 5819 5820 5820 5822 5826 5827 5827 5829
5791 5792 5793 5793 5794 5794 5794 5794 5794 5795 5793 5792 5793 5793 5794 5795 5795 5794 5793 5794 5795 5794 5793 5794 5795 5796 5797 5797 5798 5798 5799 5799 5800 5801 5802 5802 5802 5803 5804 5805 5806 5807 5807 5808 5808 5809 5809 5810 5810 5811 5812 5813 5815 5817 5817 5818 5819 5820 5824 5824 5824 5827
5787 5788 5789 5790 5790 5791 5792 5791 5791 5791 5790 5789 5789 5789 5791 5792 5793 5792 5792 5793 5794 5793 5792 5793 5794 5794 5795 5795 5795 5796 5797 5798 5799 5800 5800 5800 5801 5802 5802 5803 5804 5805 5806 5807 5807 5807 5808 5808 5808 5809 5810 5811 5813 5814 5814 5817 5818 5820 5822 5822 5823 5824
5785 5785 5785 5786 5787 5788 5790 5789 5789 5790 5789 5789 5787 5786 5787 5788 5789 5790 5790 5791 5792 5792 5791 5792 5792 5793 5793 5794 5794 5795 5797 5797 5798 5799 5798 5799 5800 5800 5800 5801 5802 5803 5804 5804 5805 5805 5806 5806 5806 5807 5808 5809 5810 5811 5812 5814 5816 5818 5821 5821 5822 5823
5784 5783 5783 5784 5785 5785 5786 5786 5786 5787 5787 5787 5786 5784 5784 5785 5787 5787 5787 5788 5790 5790 5788 5789 5790 5791 5791 5792 5792 5793 5795 5795 5796 5797 5797 5798 5799 5800 5799 5799 5800 5800 5801 5802 5802 5803 5803 5804 5805 5805 5806 5807 5808 5808 5809 5811 5813 5815 5817 5819 5820 5821
5784 5782 5781 5781 5781 5781 5781 5782 5782 5783 5783 5783 5783 5783 5783 5783 5784 5785 5784 5784 5787 5788 5788 5788 5788 5789 5789 5789 5790 5790 5792 5793 5794 5795 5795 5796 5797 5798 5798 5798 5798 5799 5799 5799 5800 5800 5801 5802 5803 5803 5804 5805 5805 5806 5807 5809 5810 5812 5814 5816 5818 5819
5784 5783 5781 5780 5779 5779 5779 5779 5779 5780 5781 5781 5781 5781 5782 5783 5782 5783 5783 5783 5785 5787 5787 5787 5788 5788 5787 5787 5787 5788 5790 5792 5793 5794 5795 5795 5796 5796 5796 5796 5796 5797 5798 5797 5797 5798 5799 5800 5801 5802 5802 5803 5804 5805 5806 5807 5808 5810 5812 5814 5815 5816
5782 5782 5781 5781 5779 5779 5778 5778 5778 5778 5779 5779 5779 5779 5780 5782 5782 5782 5782 5783 5785 5784 5784 5785 5785 5786 5786 5786 5786 5787 5788 5790 5792 5793 5793 5793 5794 5794 5794 5794 5794 5795 5795 5795 5795 5796 5797 5798 5799 5800 5800 5801 5802 5803 5805 5806 5807 5808 5810 5811 5813 5814
5780 5780 5780 5780 5780 5779 5778 5778 5777 5777 5777 5777 5776 5776 5776 5777 5778 5780 5780 5781 5781 5780 5780 5781 5781 5782 5783 5784 5785 5785 5786 5787 5789 5790 5790 5790 5791 5791 5792 5792 5792 5792 5792 5792 5793 5793 5795 5796 5797 5797 5798 5799 5800 5801 5803 5804 5805 5806 5807 5808 5811 5813
5779 5779 5779 5779 5779 5778 5778 5778 5778 5778 5777 5776 5776 5774 5774 5773 5773 5775 5777 5778 5779 5778 5779 5779 5779 5780 5781 5782 5784 5783 5783 5784 5786 5787 5787 5787 5788 5788 5789 5789 5789 5790 5790 5790 5790 5791 5792 5794 5795 5795 5796 5796 5797 5798 5800 5802 5803 5804 5805 5806 5809 5811
5777 5777 5777 5777 5778 5778 5777 5777 5777 5778 5777 5777 5777 5775 5774 5773 5772 5773 5774 5776 5777 5778 5779 5778 5778 5779 5779 5781 5782 5782 5781 5781 5783 5784 5784 5784 5785 5786 5786 5787 5788 5788 5788 5788 5788 5789 5790 5791 5792 5793 5794 5794 5795 5796 5798 5799 5801 5803 5804 5805 5806 5808
5774 5775 5775 5776 5776 5776 5776 5777 5777 5777 5777 5776 5776 5776 5775 5773 5773 5773 5774 5774 5775 5776 5777 5776 5776 5777 5778 5780 5781 5780 5780 5780 5780 5781 5781 5781 5783 5784 5785 5786 5786 5787 5787 5786 5786 5787 5788 5789 5790 5791 5791 5792 5793 5794 5796 5797 5799 5801 5802 5803 5804 5806
5772 5773 5773 5774 5774 5774 5775 5775 5775 5775 5775 5775 5775 5775 5774 5774 5773 5773 5773 5774 5774 5774 5775 5775 5775 5776 5777 5778 5779 5779 5779 5779 5779 5779 5780 5780 5781 5783 5784 5784 5785 5785 5785 5785 5785 5785 5786 5787 5788 5789 5789 5790 5791 5793 5794 5795 5797 5798 5799 5800 5802 5804
5769 5770 5771 5771 5772 5772 5773 5773 5773 5773 5773 5773 5773 5773 5773 5773 5773 5772 5772 5773 5774 5773 5773 5774 5774 5775 5775 5776 5777 5778 5778 5778 5778 5778 5779 5780 5781 5782 5783 5783 5784 5784 5784 5784 5784 5784 5784 5785 5786 5787 5788 5788 5789 5791 5792 5793 5794 5795 5796 5797 5798 5800
5767 5768 5769 5769 5770 5770 5770 5770 5770 5771 5771 5771 5771 5771 5771 5772 5771 5771 5771 5772 5772 5772 5772 5773 5773 5774 5774 5774 5775 5776 5777 5777 5777 5777 5777 5779 5780 5780 5781 5781 5782 5782 5782 5783 5783 5783 5783 5784 5785 5785 5785 5786 5787 5788 5789 5790 5791 5792 5793 5794 5795 5796
5765 5766 5767 5767 5768 5768 5768 5768 5768 5768 5769 5769 5769 5769 5769 5769 5769 5769 5770 5770 5770 5771 5771 5772 5772 5773 5773 5772 5773 5775 5775 5776 5776 5776 5776 5777 5779 5778 5779 5779 5779 5780 5780 5780 5781 5781 5781 5782 5783 5783 5783 5784 5785 5785 5787 5788 5789 5789 5790 5791 5791 5792
5762 5763 5764 5765 5766 5766 5766 5766 5766 5766 5766 5766 5767 5767 5767 5767 5767 5767 5768 5768 5768 5769 5769 5770 5770 5771 5771 5770 5771 5772 5773 5774 5774 5774 5774 5775 5776 5776 5776 5777 5777 5777 5778 5778 5778 5779 5779 5779 5780 5781 5781 5782 5782 5783 5784 5785 5786 5786 5787 5787 5788 5788
5760 5761 5762 5762 5763 5764 5765 5764 5764 5764 5764 5764 5764 5764 5764 5764 5765 5765 5765 5766 5766 5767 5767 5768 5768 5768 5769 5769 5768 5769 5771 5771 5771 5772 5772 5773 5774 5774 5774 5775 5775 5775 5775 5776 5776 5776 5776 5777 5778 5779 5780 5780 5780 5780 5781 5782 5782 5783 5784 5784 5784 5784
5758 5759 5759 5760 5761 5762 5762 5762 5761 5761 5762 5762 5762 5762 5762 5762 5762 5762 5763 5764 5764 5764 5765 5765 5766 5766 5766 5766 5766 5767 5768 5768 5769 5769 5770 5770 5771 5772 5772 5773 5773 5773 5773 5773 5773 5774 5774 5775 5775 5776 5777 5777 5777 5777 5778 5778 5779 5780 5780 5781 5781 5781
5755 5756 5757 5758 5758 5759 5759 5760 5759 5759 5759 5759 5760 5760 5760 5760 5760 5760 5760 5761 5761 5762 5762 5763 5763 5764 5764 5764 5764 5764 5765 5766 5766 5766 5767 5767 5768 5769 5770 5771 5771 5771 5771 5770 5770 5771 5772 5772 5773 5773 5773 5774 5775 5775 5775 5775 5776 5776 5777 5777 5777 5778
5752 5753 5754 5755 5755 5756 5757 5757 5757 5756 5757 5757 5757 5757 5758 5757 5757 5758 5758 5758 5759 5759 5760 5760 5760 5761 5761 5761 5762 5762 5762 5763 5763 5764 5765 5765 5765 5766 5768 5769 5769 5769 5769 5768 5768 5769 5769 5769 5769 5769 5770 5770 5771 5772 5772 5773 5774 5774 5774 5774 5773 5774
5749 5749 5751 5751 5752 5753 5754 5754 5754 5753 5754 5754 5755 5755 5755 5755 5755 5755 5756 5756 5756 5757 5757 5757 5757 5758 5758 5758 5759 5759 5760 5760 5761 5761 5762 5762 5763 5763 5764 5765 5766 5766 5766 5766 5766 5766 5766 5767 5766 5766 5766 5767 5768 5769 5769 5770 5771 5771 5771 5771 5770 5771
5746 5746 5747 5748 5749 5750 5750 5751 5751 5751 5751 5751 5752 5752 5752 5753 5753 5753 5753 5754 5754 5754 5754 5755 5755 5755 5755 5755 5756 5756 5757 5757 5758 5759 5759 5760 5760 5761 5761 5762 5762 5762 5763 5764 5763 5764 5764 5764 5764 5763 5763 5764 5765 5765 5766 5767 5768 5768 5768 5768 5768 5768
5744 5744 5744 5745 5746 5747 5747 5748 5748 5749 5748 5748 5749 5749 5750 5750 5751 5751 5751 5751 5752 5752 5752 5752 5752 5752 5752 5753 5753 5753 5754 5755 5755 5756 5756 5757 5758 5758 5759 5759 5759 5760 5760 5761 5761 5761 5761 5761 5761 5761 5761 5761 5761 5762 5764 5764 5765 5765 5766 5766 5766 5766
5741 5741 5741 5742 5743 5744 5744 5744 5745 5746 5746 5746 5746 5746 5747 5747 5748 5748 5748 5749 5749 5749 5750 5750 5750 5750 5750 5750 5750 5750 5751 5751 5752 5752 5753 5754 5755 5755 5756 5756 5756 5757 5757 5758 5758 5758 5758 5758 5758 5758 5758 5759 5759 5760 5761 5761 5762 5762 5763 5764 5764 5765
5738 5738 5738 5739 5740 5741 5742 5741 5741 5743 5743 5743 5743 5744 5744 5745 5745 5745 5745 5746 5746 5746 5747 5747 5747 5747 5747 5747 5747 5747 5747 5748 5748 5749 5749 5750 5751 5752 5752 5753 5753 5754 5754 5755 5755 5755 5756 5756 5756 5756 5756 5756 5756 5757 5758 5758 5759 5759 5760 5761 5762 5763
5735 5735 5736 5736 5737 5738 5738 5738 5738 5739 5740 5741 5741 5741 5741 5742 5742 5742 5743 5743 5743 5743 5744 5744 5744 5745 5745 5745 5745 5745 5745 5745 5745 5746 5746 5747 5748 5749 5749 5750 5751 5751 5751 5752 5752 5753 5753 5753 5753 5753 5753 5753 5754 5754 5755 5755 5756 5756 5757 5758 5759 5760
5732 5732 5733 5733 5733 5735 5735 5735 5736 5736 5737 5738 5738 5739 5739 5739 5740 5740 5740 5740 5741 5741 5741 5742 5742 5742 5743 5743 5743 5743 5743 5743 5743 5743 5744 5744 5745 5746 5746 5747 5748 5748 5749 5749 5750 5750 5750 5750 5750 5751 5751 5751 5751 5752 5752 5753 5753 5753 5754 5755 5755 5756
5728 5729 5730 5730 5730 5732 5732 5732 5733 5733 5734 5735 5736 5736 5736 5737 5737 5737 5738 5738 5738 5739 5739 5739 5740 5740 5740 5741 5741 5741 5741 5741 5741 5741 5742 5742 5742 5743 5744 5744 5745 5745 5746 5746 5747 5747 5747 5747 5748 5748 5748 5748 5748 5749 5750 5750 5750 5751 5751 5752 5753 5753
5725 5726 5726 5727 5728 5728 5729 5730 5730 5731 5732 5733 5733 5734 5734 5734 5735 5735 5735 5736 5736 5736 5737 5737 5738 5738 5738 5739 5739 5739 5739 5740 5740 5740 5740 5740 5740 5741 5741 5742 5742 5743 5743 5744 5744 5744 5745 5745 5745 5745 5745 5745 5746 5746 5747 5748 5748 5748 5749 5750 5750 5751
5722 5724 5723 5724 5725 5725 5726 5727 5728 5729 5729 5730 5731 5732 5733 5732 5733 5733 5733 5733 5734 5734 5735 5735 5736 5736 5737 5737 5737 5738 5738 5738 5738 5738 5738 5739 5739 5739 5739 5740 5740 5741 5741 5741 5742 5742 5742 5742 5742 5743 5743 5743 5743 5743 5744 5745 5745 5746 5746 5747 5748 5749
5719 5720 5720 5721 5721 5722 5724 5725 5726 5727 5727 5728 5729 5730 5731 5731 5731 5731 5731 5731 5731 5732 5733 5733 5734 5734 5735 5735 5736 5736 5736 5736 5737 5737 5737 5737 5737 5737 5738 5738 5738 5738 5739 5739 5740 5740 5740 5741 5741 5741 5741 5741 5741 5741 5742 5742 5743 5743 5744 5744 5745 5746
5717 5715 5716 5718 5719 5720 5721 5723 5724 5724 5725 5725 5726 5728 5728 5729 5729 5729 5729 5729 5730 5730 5731 5731 5732 5732 5733 5733 5734 5734 5734 5734 5735 5735 5735 5735 5736 5736 5736 5736 5737 5737 5737 5737 5738 5738 5738 5739 5739 5739 5739 5740 5740 5740 5740 5740 5741 5741 5742 5742 5743 5743